Printer-friendly version

IAU Minor Planet Center

Minor Planet Center

MPEC 2007-V07 : 2007 UT65

The following Minor Planet Electronic Circular may be linked-to from your own Web pages, but must not otherwise be redistributed electronically.


Read MPEC 2007-V06 Read MPEC 2007-V08


M.P.E.C. 2007-V07                                Issued 2007 Nov. 2, 17:50 UT

     The Minor Planet Electronic Circulars contain information on unusual
         minor planets and routine data on comets.  They are published
   on behalf of Commission 20 of the International Astronomical Union by the
          Minor Planet Center, Smithsonian Astrophysical Observatory,
                          Cambridge, MA 02138, U.S.A.

             Prepared using the Tamkin Foundation Computer Network

                              MPC@CFA.HARVARD.EDU
          URL http://www.cfa.harvard.edu/iau/mpc.html  ISSN 1523-6714

                                   2007 UT65

Observations:
     K07U65T  C2007 10 31.23954 02 51 59.47 +17 34 49.1          21.7 V EV007G96
     K07U65T  C2007 10 31.24618 02 51 59.90 +17 35 24.6          20.8 V EV007G96
     K07U65T  C2007 10 31.25286 02 52 00.33 +17 36 00.5          21.6 V EV007G96
     K07U65T  C2007 10 31.25955 02 52 00.80 +17 36 37.3          21.0 V EV007G96
     K07U65T* C2007 10 31.29522 02 52 03.14 +17 39 48.9          20.8 V EV007G96
     K07U65T  C2007 10 31.29587 02 52 03.18 +17 39 52.5          20.9 V EV007G96
     K07U65T  C2007 10 31.29653 02 52 03.25 +17 39 55.9          20.2 V EV007G96
     K07U65T  C2007 10 31.29719 02 52 03.32 +17 40 00.1          21.1 V EV007G96
     K07U65T  C2007 10 31.35983 02 52 07.42 +17 45 34.4          21.3 V EV007G96
     K07U65T  C2007 10 31.36047 02 52 07.45 +17 45 38.7          20.7 V EV007G96
     K07U65T  C2007 10 31.36178 02 52 07.60 +17 45 45.0          20.9 V EV007G96
     K07U65T  C2007 10 31.85313 02 52 54.74 +18 29 52.7                 EV007J95
     K07U65T  C2007 10 31.88812 02 52 57.59 +18 33 08.2          20.7 R EV007J95
     K07U65T  C2007 11 02.30210 02 55 08.97 +20 47 30.2          20.3 V EV007G96
     K07U65T  C2007 11 02.31041 02 55 09.62 +20 48 19.0          20.4 V EV007G96
     K07U65T  C2007 11 02.31861 02 55 10.20 +20 49 07.5          20.9 V EV007G96
     K07U65T  C2007 11 02.32678 02 55 10.81 +20 49 55.0          20.3 V EV007G96
     K07U65T  C2007 11 02.40200 02 55 16.42 +20 57 14.8          19.6 V EV007G96
     K07U65T  C2007 11 02.40491 02 55 16.68 +20 57 32.0          20.0 V EV007G96
     K07U65T  C2007 11 02.40785 02 55 16.86 +20 57 48.7          20.9 V EV007G96
     K07U65T  C2007 11 02.41080 02 55 17.11 +20 58 06.2          21.5 V EV007G96

Observer details:
G96 Mt. Lemmon Survey.  Observers R. A. Kowalski, A. Boattini.  Measurers
    E. C. Beshore, A. Boattini, G. J. Garradd, A. R. Gibbs, A. D. Grauer,
    R. E. Hill, R. A. Kowalski, S. M. Larson, R. H. McNaught.  1.5-m reflector
    + CCD.
J95 Great Shefford.  Observer P. Birtwhistle.  0.40-m f/6.0 Schmidt-Cassegrain
    + CCD.

Orbital elements:
2007 UT65                                                Earth MOID = 0.1121 AU
Epoch 2007 Oct. 27.0 TT = JDT 2454400.5                 MPC
M 347.35533              (2000.0)            P               Q
n   0.33476447     Peri.   35.67553     +0.29288838     -0.95041432
a   2.0542020      Node    37.60850     +0.83270565     +0.19981135
e   0.4792903      Incl.    9.86379     +0.46991243     +0.23830241
P   2.94           H   24.2           G   0.15           U   8
Residuals in seconds of arc
071031 G96  0.1+  0.0     071031 G96  0.3+  0.8+    071102 G96  0.3+  0.2-
071031 G96  0.2-  0.3-    071031 G96  0.1+  0.7-    071102 G96  0.0   0.2+
071031 G96  0.5-  0.3-    071031 G96  0.1-  0.2+    071102 G96  0.2+  0.2-
071031 G96  0.1-  0.4+    071031 G96  0.8+  0.5-    071102 G96  0.2-  0.0
071031 G96  0.4-  0.2+    071031 J95  0.3-  0.4-    071102 G96  0.3+  0.3+
071031 G96  0.5-  0.3+    071031 J95  0.4+  0.4+    071102 G96  0.4-  0.1-
071031 G96  0.1-  0.1+    071102 G96  0.2-  0.2-    071102 G96  0.1-  0.2+

Ephemeris:
2007 UT65                a,e,i = 2.05, 0.48, 10                  q = 1.0696
Date    TT    R. A. (2000) Decl.     Delta      r     Elong.  Phase     V
2007 10 27    02 46.31   +11 54.1    0.161    1.152   169.5     9.0    21.1
2007 11 06    03 01.85   +27 17.1    0.127    1.116   167.6    11.0    20.6
2007 11 16    03 31.68   +48 09.9    0.113    1.089   150.3    26.7    20.9
2007 11 26    04 43.17   +67 04.1    0.121    1.073   133.3    42.0    21.4
2007 12 06    07 19.73   +75 43.0    0.142    1.070   123.3    50.3    22.0

Timothy B. Spahr             (C) Copyright 2007 MPC           M.P.E.C. 2007-V07

Read MPEC 2007-V06 Read MPEC 2007-V08


Our Web policy. Index to the CBAT/MPC/ICQ pages.


Valid HTML 4.01!